www.pogodaiklimat.ru

Погода и климат >> Архив погоды >> Армения >> Капан


ПОГОДА в Капане

  • Прогноз погоды в Капане
  • Монитор погоды в Капане

АРХИВ ПОГОДЫ в Капане

Время (UTC), дата Ветер
(напр.,м/с)
 
Видим.   Явления Облачность Т
(С)
Тd
(С)
f
(%)
Тe
(С)
Тes
(С)
Комфортность P
(гПа)
Po
(гПа)
Тmin
(С)
Tmax
(С)
R
(мм)
R24
(мм)
S
(см)
00 11.06 штиль 0 н/о 4/0
[Ac und Ci fib]
+18.3 +16.8 91 +19 +19 1016.5 937.0
03 11.06 штиль 0 10 км 3/0
[Ci fib]
+15.4 +14.7 96 +15 +17 1017.4 937.0
06 11.06 ЮВ 2 10 км 4/0
[Ac und]
+26.7 +17.4 57 +31 +40 душно 1014.1 936.9 +15.4
12 11.06 В 1 10 км ясно +30.6 +11.5 31 +31 +45 жарко 1013.5 937.2
18 11.06 З 2 н/о {гроза, ливн. осадки} 6/0
[As op]
+18.7 +16.2 85 +20 +20 1016.5 937.0 +31.5
00 12.06 ЮВ 2 н/о ясно +15.8 +15.5 98 +16 +16 1013.0 933.1
06 12.06 ЮВ 3 10 км ясно +24.9 +17.9 65 +29 +40 душно 1009.5 932.3 +14.5 14
12 12.06 ЮВ 2 10 км 6/5 2000 м
[Cb calv Ac und]
+31.3 +20.0 51 +38 +43 очень
душно
1004.9 929.6
18 12.06 СЗ 1 н/о 6/0
[As op]
+23.7 +21.0 85 +30 +30 очень
душно
1008.0 930.7 +32.5
00 13.06 ЮЗ 1 н/о 8/0
[Ac und]
+19.1 +18.4 96 +22 +22 комфорт 1009.5 930.8
03 13.06 СЗ 1 10 км 4/0
[Ci fib]
+15.0 +14.9 99 +15 +17 1011.1 931.1
06 13.06 В 2 10 км ясно +25.3 +17.1 60 +29 +42 душно 1009.0 931.9 +15.0
12 13.06 В 2 10 км 3/3 2000 м
[Cu hum]
+30.9 +13.4 34 +32 +41 жарко 1006.0 930.3
18 13.06 С 2 н/о 10/6 2000 м
[Cb calv Ac und]
+21.7 +14.0 62 +25 +25 комфорт 1010.0 931.8 +30.9
00 14.06 ЮЗ 2 н/о 9/5 2000 м
[Cb calv Ac und]
+18.9 +17.3 90 +21 +21 комфорт 1010.5 931.6
03 14.06 З 1 10 км ясно +18.4 +17.7 96 +20 +22 1012.7 933.5
06 14.06 штиль 0 10 км ясно +27.9 +13.8 42 +30 +47 жарко 1010.9 934.1 +18.0
12 14.06 ЮВ 2 10 км ясно +32.3 +11.0 27 +32 +44 жарко 1008.7 933.0
18 14.06 СЗ 2 н/о ясно +21.6 +11.8 54 +24 +24 комфорт 1014.7 936.0 +33.0
00 15.06 С 2 н/о ясно +15.2 +11.1 77 +15 +15 1016.6 936.1
03 15.06 С 1 10 км ясно +15.5 +13.9 90 +16 +18 1016.5 936.2
06 15.06 штиль 0 10 км ясно +27.1 +13.8 44 +29 +47 жарко 1018.5 940.9 +15.0
12 15.06 Ю 2 10 км 3/3 2000 м
[Cu hum]
+31.3 +11.0 29 +31 +40 жарко 1009.4 933.5
18 15.06 СЗ 1 н/о 8/6 1500 м
[Cb calv Ac und]
+22.1 +14.7 63 +25 +25 комфорт 1012.1 933.8 +32.0
00 16.06 СЗ 1 н/о 3/0
[Ci sp]
+15.0 +12.4 84 +16 +16 1014.1 933.8
03 16.06 СЗ 1 10 км 3/0
[Ci fib]
+15.6 +13.8 89 +16 +18 1013.9 933.8
06 16.06 ЮВ 1 10 км 3/0
[Cs]
+26.1 +16.0 54 +29 +42 жарко 1010.3 933.2 +15.0
12 16.06 ЮВ 2 10 км 3/3 2000 м
[Cu hum]
+33.3 +13.8 31 +34 +43 очень
жарко
1004.8 929.8
18 16.06 штиль 0 н/о 6/0
[Ci sp]
+22.3 +13.9 59 +25 +25 комфорт 1009.4 931.4 +33.8
00 17.06 штиль 0 н/о ясно +18.3 +14.5 79 +19 +19 1010.4 931.3
03 17.06 штиль 0 10 км ясно +17.7 +16.0 90 +18 +20 1010.9 931.6
06 17.06 В 1 10 км ясно +28.1 +18.1 55 +33 +48 очень
душно
1007.6 931.3 +17.5
12 17.06 ЮВ 2 10 км 3/0
[Ci fib]
+33.3 +15.6 35 +36 +47 очень
душно
1003.8 928.9
18 17.06 С 1 н/о 10/0
[As op]
+23.5 +20.1 81 +29 +29 душно 1008.5 931.1 +34.0

 

Местоположение метеостанции Капан (Армения): широта 39.20 долгота 46.43 высота над уровнем моря 706 м.

В архиве по умолчанию представлена погода в Капане за последнюю неделю. Архивные данные за месяц целиком и за предыдущие месяцы, начиная с января 2011 года, Вы можете получить, выбрав интересующий диапазон дат из раскрывающегося списка и нажав кнопку "Ввод!".


*Определитесь, кто Вы:
робот инопланетянин человек

Внимание! Время в таблицах - всемирное. Для получения местного времени необходимо прибавить поправку, которая равна 4 ч.

Смотрите также архив погоды в соседних городах и на ближайших метеорологических станциях:

Погода в Сисиане (Армения) (51 км)
Погода в Нахичивани (Азербайджан) (87 км)
Погода в Ахаре (Иран) (102 км)
Погода в Тебризе (Иран) (125 км)
Погода в Беылагане (Азербайджан) (130 км)
Погода в Парсабаде (Иран) (137 км)
Погода в Барде (Азербайджан) (143 км)
Погода в Хое (Иран) (146 км)
Погода в Гадабухте (Азербайджан) (161 км)
Погода в Гяндже (Азербайджан) (169 км)

Пояснения к столбцам:

Ветер - указаны скорость ветра в м/с - средняя за 10 мин, порывы в срок и между сроками (в фигурных скобках) и направление, откуда дует ветер: С - северный, СВ - северо-восточный, В - восточный, ЮВ - юго-восточный, Ю - южный, ЮЗ - юго-западный, З - западный, СЗ - северо-западный.
Видимость - горизонтальная дальность видимости в метрах или километрах. При видимости от 1 до 10 км при отсутствии осадков обычно наблюдается дымка, при ухудшении видимости до 1 км и менее - туман. В сухую погоду видимость может ухудшаться дымом, пылью или мглою.
Явления - указаны атмосферные явления, наблюдавшиеся в срок или в последний час перед сроком; фигурными скобками обозначены явления, наблюдавшиеся между сроками (за 1-3 часа до срока); квадратными скобками обозначены град или гололедные отложения с указанием их диаметра в мм.
Облачность - указаны через наклонную черту общая и нижняя облачность в баллах и высота нижней границы облаков в метрах; квадратными скобками обозначены формы облаков: Ci - перистые, Cs - перисто-слоистые, Cc - перисто-кучевые, Ac - высококучевые, As - высокослоистые, Sc - слоисто-кучевые, Ns - слоисто-дождевые, Cu - кучевые, Cb - кучево-дождевые. Подробнее классификацию облаков см. в Атласе облаков (PDF).
T - Температура воздуха - температура, измеренная на высоте 2 м над землей.
Td - Температура точки росы - температура, при понижении до которой содержащийся в воздухе водяной пар достигнет насыщения.
f - Относительная влажность воздуха - влажноcть воздуха, измеренная на высоте 2 м над землей.
Te - Эффективная температура - температура, которую ощущает одетый по сезону человек в тени. Характеристика душности погоды. При расчете учитывается влияние влажности воздуха и скорости ветра на теплоощущения человека.
Tes - Эффективная температура на солнце - температура, которую ощущает человек, с поправкой на солнечный нагрев. Характеристика знойности погоды. Зависит от высоты солнца над горизонтом, облачности и скорости ветра. Ночью, в пасмурную погоду, а также при ветре 12 м/с и более поправка равна нулю.
P - Атмосферное давление - приведенное к уровню моря атмосферное давление.
Po - Атмосферное давление - измеренное на уровне метеостанции атмосферное давление.
Tmin - Минимальная температура - минимум температуры воздуха на высоте 2 м над землей.
Tmax - Максимальная температура - максимум температуры воздуха на высоте 2 м над землей.
R - Количество осадков - Количество выпавших осадков за период времени, мм. При наведении курсора мыши на число - период времени, за который выпало указанное количество осадков.
R24 - Количество осадков - Количество выпавших осадков за 24 часа, мм.
S - Снежный покров - Высота снежного покрова, см. При наведении курсора мыши на число - состояние снежного покрова и степень покрытия местности в баллах.